Location: Nachod
(50.4170°N, 16.1670°E)
Time: 23:55:56
(UTC+02:00)

ISS - Pass Details

Date: 29 March 2019
Orbit: 408 x 410 km, 51.6° (Epoch: 23 April)

Event Time Altitude Azimuth Distance (km) Brightness Sun altitude
Rises 20:04:37 0° 276° (W) 2,337 1.4 -16.4°
Reaches altitude 10° 20:06:43 10° 279° (W) 1,475 0.2 -16.7°
Maximum altitude 20:10:01 70° 4° (N) 440 -3.7 -17.1°
Enters shadow 20:10:55 44° 73° (ENE) 581 -3.4 -17.3°
